カタログに戻る

STARLINK-38148

運用中通信SSO
NORAD 100199·PAYLOAD·🇺🇸 United States

打ち上げ Aug 1, 2026 から Vandenberg Space Force Base

Loading…

次のパス (今後24時間)

TLE

最新Source: Space-Track

元期: Sep 14, 2026, 12:23 UTC

1 A0199U 26175W   26257.51643419  .00210073  00000-0  13709-2 0  9990
2 A0199  97.2832  99.6482 0001303 108.3315 251.8092 15.75258153  8230

AllMySatでSTARLINK-38148をリアルタイム追跡

Download on the App Store